^^
Daily Summary for August 06, 2022 Units:  Metric    English   Both
Daily Weekly Monthly Yearly Custom
  High: Low: Average:
Temperature: 32.8 °C 14.4 °C 22.3 °C
Dew Point: 16.1 °C 12.2 °C 14 °C
Humidity: 89% 30% 64%
Wind Speed: 29km/h 0km/h 5.1km/h
Wind Gust: 27.4km/h - -
Wind- - ESE
Pressure: 1019.2 hPa 1015.8 hPa -
Precipitation: 0 mm    
Historical Graphs
 
 
Tabular Data for August 06, 2022
Time Temperature Dew Point Pressure Wind Wind Speed Wind Gust Humidity Rainfall Rate (Hourly) solar
00:04 19.4 °C 13.9 °C 1015.8 hPa Calm     72% 0 mm 0.00 W/m2
00:09 19.4 °C 13.9 °C 1015.8 hPa Calm     72% 0 mm 0.00 W/m2
00:14 19.4 °C 13.9 °C 1015.8 hPa Calm     72% 0 mm 0.00 W/m2
00:19 18.9 °C 14.4 °C 1015.8 hPa Calm     73% 0 mm 0.00 W/m2
00:24 18.9 °C 13.9 °C 1015.8 hPa Calm     73% 0 mm 0.00 W/m2
00:29 18.9 °C 13.9 °C 1015.8 hPa Calm     73% 0 mm 0.00 W/m2
00:34 18.9 °C 13.9 °C 1015.8 hPa Calm     73% 0 mm 0.00 W/m2
00:44 18.9 °C 13.9 °C 1015.8 hPa Calm     73% 0 mm 0.00 W/m2
00:49 18.9 °C 13.9 °C 1015.8 hPa Calm     73% 0 mm 0.00 W/m2
00:54 18.9 °C 13.9 °C 1015.8 hPa Calm     74% 0 mm 0.00 W/m2
00:59 18.9 °C 13.9 °C 1015.8 hPa Calm     74% 0 mm 0.00 W/m2
01:04 18.9 °C 13.9 °C 1015.8 hPa Calm     74% 0 mm 0.00 W/m2
01:09 18.9 °C 13.9 °C 1015.8 hPa Calm     74% 0 mm 0.00 W/m2
01:14 18.3 °C 13.9 °C 1015.8 hPa Calm     74% 0 mm 0.00 W/m2
01:19 18.3 °C 13.9 °C 1015.8 hPa Calm     74% 0 mm 0.00 W/m2
01:24 18.3 °C 13.9 °C 1015.8 hPa Calm     75% 0 mm 0.00 W/m2
01:29 18.3 °C 13.9 °C 1015.8 hPa Calm     75% 0 mm 0.00 W/m2
01:34 18.3 °C 13.9 °C 1015.8 hPa Calm     75% 0 mm 0.00 W/m2
01:39 18.3 °C 13.9 °C 1015.8 hPa Calm     75% 0 mm 0.00 W/m2
01:44 18.3 °C 13.9 °C 1015.8 hPa Calm     76% 0 mm 0.00 W/m2
01:49 18.3 °C 13.9 °C 1015.8 hPa Calm     76% 0 mm 0.00 W/m2
01:54 18.3 °C 13.9 °C 1015.8 hPa Calm     76% 0 mm 0.00 W/m2
01:59 17.8 °C 13.9 °C 1015.8 hPa Calm     76% 0 mm 0.00 W/m2
02:04 17.8 °C 13.9 °C 1015.8 hPa Calm     77% 0 mm 0.00 W/m2
02:09 17.8 °C 13.9 °C 1015.8 hPa Calm     77% 0 mm 0.00 W/m2
02:14 17.8 °C 13.9 °C 1015.8 hPa Calm     77% 0 mm 0.00 W/m2
02:19 17.8 °C 13.9 °C 1015.8 hPa Calm     78% 0 mm 0.00 W/m2
02:24 17.8 °C 13.9 °C 1015.8 hPa Calm     78% 0 mm 0.00 W/m2
02:29 17.8 °C 13.9 °C 1015.8 hPa Calm     78% 0 mm 0.00 W/m2
02:34 17.2 °C 13.3 °C 1015.8 hPa Calm     78% 0 mm 0.00 W/m2
02:39 17.2 °C 13.3 °C 1015.8 hPa Calm     78% 0 mm 0.00 W/m2
02:44 17.2 °C 13.9 °C 1015.8 hPa Calm     79% 0 mm 0.00 W/m2
02:49 17.2 °C 13.3 °C 1015.8 hPa Calm     79% 0 mm 0.00 W/m2
02:54 17.2 °C 13.3 °C 1015.8 hPa Calm     79% 0 mm 0.00 W/m2
02:59 17.2 °C 13.3 °C 1015.8 hPa Calm     80% 0 mm 0.00 W/m2
03:04 17.2 °C 13.3 °C 1015.8 hPa Calm     80% 0 mm 0.00 W/m2
03:09 17.2 °C 13.3 °C 1015.8 hPa Calm     80% 0 mm 0.00 W/m2
03:14 16.7 °C 13.3 °C 1015.8 hPa Calm     80% 0 mm 0.00 W/m2
03:19 16.7 °C 13.3 °C 1015.8 hPa Calm     80% 0 mm 0.00 W/m2
03:24 16.7 °C 13.3 °C 1015.8 hPa Calm     81% 0 mm 0.00 W/m2
03:29 16.7 °C 13.3 °C 1015.8 hPa Calm     81% 0 mm 0.00 W/m2
03:34 16.7 °C 13.3 °C 1015.8 hPa Calm     81% 0 mm 0.00 W/m2
03:39 16.7 °C 13.3 °C 1015.8 hPa Calm     81% 0 mm 0.00 W/m2
03:44 16.7 °C 13.3 °C 1015.8 hPa Calm     81% 0 mm 0.00 W/m2
03:49 16.7 °C 13.3 °C 1015.8 hPa Calm     82% 0 mm 0.00 W/m2
03:54 16.7 °C 13.3 °C 1015.8 hPa Calm     82% 0 mm 0.00 W/m2
03:59 16.7 °C 13.3 °C 1015.8 hPa Calm     82% 0 mm 0.00 W/m2
04:04 16.7 °C 13.3 °C 1015.8 hPa Calm     82% 0 mm 0.00 W/m2
04:09 16.7 °C 13.3 °C 1015.8 hPa Calm     82% 0 mm 0.00 W/m2
04:14 16.7 °C 13.3 °C 1015.8 hPa Calm     82% 0 mm 0.00 W/m2
04:19 16.7 °C 13.3 °C 1015.8 hPa Calm     82% 0 mm 0.00 W/m2
04:24 16.1 °C 13.3 °C 1015.8 hPa Calm     82% 0 mm 0.00 W/m2
04:29 16.1 °C 13.3 °C 1015.8 hPa Calm     82% 0 mm 0.00 W/m2
04:34 16.1 °C 13.3 °C 1015.8 hPa Calm     83% 0 mm 0.00 W/m2
04:39 16.1 °C 13.3 °C 1015.8 hPa Calm     83% 0 mm 0.00 W/m2
04:44 16.1 °C 13.3 °C 1015.8 hPa Calm     82% 0 mm 0.00 W/m2
04:49 16.1 °C 13.3 °C 1015.8 hPa Calm     82% 0 mm 0.00 W/m2
04:54 16.1 °C 13.3 °C 1015.8 hPa Calm     83% 0 mm 0.00 W/m2
04:59 16.1 °C 13.3 °C 1015.8 hPa Calm     83% 0 mm 0.00 W/m2
05:04 16.1 °C 13.3 °C 1015.8 hPa Calm     83% 0 mm 0.00 W/m2
05:09 16.1 °C 13.3 °C 1015.8 hPa ESE 3.2 km/h   83% 0 mm 0.00 W/m2
05:14 16.1 °C 12.8 °C 1015.8 hPa Calm   3.2 km/h 83% 0 mm 0.00 W/m2
05:19 16.1 °C 12.8 °C 1015.8 hPa Calm     83% 0 mm 0.00 W/m2
05:24 15.6 °C 12.8 °C 1015.8 hPa Calm     83% 0 mm 0.00 W/m2
05:29 15.6 °C 12.8 °C 1015.8 hPa Calm     83% 0 mm 0.00 W/m2
05:34 15.6 °C 12.8 °C 1015.8 hPa Calm     83% 0 mm 0.00 W/m2
05:39 15.6 °C 12.8 °C 1015.8 hPa Calm     83% 0 mm 0.00 W/m2
05:44 15.6 °C 12.8 °C 1015.8 hPa Calm     83% 0 mm 0.00 W/m2
05:49 15.6 °C 12.2 °C 1015.8 hPa Calm     83% 0 mm 0.00 W/m2
05:54 15.6 °C 12.8 °C 1015.8 hPa Calm     84% 0 mm 0.00 W/m2
05:59 15 °C 12.8 °C 1015.8 hPa Calm     84% 0 mm 0.00 W/m2
06:04 15 °C 12.8 °C 1015.8 hPa Calm     84% 0 mm 0.00 W/m2
06:09 15 °C 12.2 °C 1015.8 hPa Calm     84% 0 mm 0.00 W/m2
06:14 15 °C 12.2 °C 1015.8 hPa Calm     84% 0 mm 0.00 W/m2
06:19 15 °C 12.2 °C 1015.8 hPa Calm     84% 0 mm 0.00 W/m2
06:24 15 °C 12.2 °C 1015.8 hPa Calm     84% 0 mm 5.00 W/m2
06:29 15 °C 12.2 °C 1015.8 hPa Calm     84% 0 mm 5.00 W/m2
06:34 15 °C 12.2 °C 1015.8 hPa Calm     85% 0 mm 7.00 W/m2
06:39 15 °C 12.2 °C 1015.8 hPa Calm     85% 0 mm 9.00 W/m2
06:44 15 °C 12.2 °C 1015.8 hPa Calm     86% 0 mm 11.00 W/m2
06:49 15 °C 12.2 °C 1015.8 hPa Calm     86% 0 mm 11.00 W/m2
06:54 14.4 °C 12.2 °C 1015.8 hPa Calm     86% 0 mm 12.00 W/m2
06:59 14.4 °C 12.2 °C 1015.8 hPa Calm     86% 0 mm 14.00 W/m2
07:04 14.4 °C 12.2 °C 1019.2 hPa Calm     87% 0 mm 16.00 W/m2
07:09 14.4 °C 12.8 °C 1019.2 hPa Calm     87% 0 mm 16.00 W/m2
07:14 14.4 °C 12.8 °C 1019.2 hPa Calm     87% 0 mm 18.00 W/m2
07:19 14.4 °C 12.8 °C 1019.2 hPa Calm     87% 0 mm 18.00 W/m2
07:24 14.4 °C 12.8 °C 1019.2 hPa Calm     88% 0 mm 19.00 W/m2
07:29 15 °C 12.8 °C 1019.2 hPa Calm     88% 0 mm 21.00 W/m2
07:34 15 °C 12.8 °C 1019.2 hPa Calm     88% 0 mm 21.00 W/m2
07:39 15 °C 13.3 °C 1019.2 hPa Calm     89% 0 mm 21.00 W/m2
07:44 15 °C 13.3 °C 1019.2 hPa Calm     89% 0 mm 26.00 W/m2
07:49 15 °C 13.3 °C 1019.2 hPa Calm     89% 0 mm 26.00 W/m2
07:54 15 °C 13.3 °C 1019.2 hPa Calm     89% 0 mm 28.00 W/m2
07:59 15 °C 13.3 °C 1019.2 hPa Calm     89% 0 mm 28.00 W/m2
08:04 15 °C 13.3 °C 1019.2 hPa Calm     89% 0 mm 30.00 W/m2
08:09 15.6 °C 13.3 °C 1019.2 hPa Calm     89% 0 mm 33.00 W/m2
08:14 15.6 °C 13.9 °C 1019.2 hPa Calm     89% 0 mm 67.00 W/m2
08:19 15.6 °C 13.9 °C 1019.2 hPa ESE 3.2 km/h   89% 0 mm 116.00 W/m2
08:24 16.1 °C 13.9 °C 1019.2 hPa Calm   3.2 km/h 89% 0 mm 116.00 W/m2
08:29 16.1 °C 14.4 °C 1019.2 hPa Calm     89% 0 mm 62.00 W/m2
08:34 16.1 °C 14.4 °C 1019.2 hPa ESE 3.2 km/h   88% 0 mm 63.00 W/m2
08:39 16.7 °C 14.4 °C 1019.2 hPa ESE 3.2 km/h 3.2 km/h 88% 0 mm 91.00 W/m2
08:44 16.7 °C 14.4 °C 1019.2 hPa Calm     86% 0 mm 144.00 W/m2
08:49 17.2 °C 14.4 °C 1019.2 hPa Calm     86% 0 mm 480.00 W/m2
08:54 17.2 °C 14.4 °C 1019.2 hPa ESE 3.2 km/h 1.6 km/h 84% 0 mm 490.00 W/m2
08:59 17.8 °C 14.4 °C 1019.2 hPa Calm   3.2 km/h 82% 0 mm 508.00 W/m2
09:04 17.8 °C 14.4 °C 1019.2 hPa East 3.2 km/h   82% 0 mm 524.00 W/m2
09:09 18.3 °C 15 °C 1019.2 hPa East 3.2 km/h 3.2 km/h 80% 0 mm 540.00 W/m2
09:14 18.3 °C 15 °C 1019.2 hPa East 3.2 km/h 3.2 km/h 80% 0 mm 557.00 W/m2
09:19 18.9 °C 14.4 °C 1019.2 hPa ESE 3.2 km/h 3.2 km/h 78% 0 mm 573.00 W/m2
09:24 19.4 °C 15 °C 1019.2 hPa Calm   3.2 km/h 76% 0 mm 589.00 W/m2
09:29 19.4 °C 15 °C 1019.2 hPa Calm     76% 0 mm 606.00 W/m2
09:34 20 °C 15 °C 1019.2 hPa Calm     74% 0 mm 615.00 W/m2
09:39 20 °C 15 °C 1019.2 hPa ESE 3.2 km/h 3.2 km/h 73% 0 mm 629.00 W/m2
09:44 20.6 °C 15 °C 1019.2 hPa ESE 3.2 km/h   71% 0 mm 643.00 W/m2
09:49 21.1 °C 15 °C 1019.2 hPa ESE 6.4 km/h 3.2 km/h 71% 0 mm 656.00 W/m2
09:54 21.1 °C 15 °C 1019.2 hPa ESE 11.3 km/h 9.7 km/h 69% 0 mm 671.00 W/m2
09:59 21.7 °C 15 °C 1019.2 hPa SE 6.4 km/h 11.3 km/h 67% 0 mm 684.00 W/m2
10:04 21.7 °C 15 °C 1019.2 hPa SE 3.2 km/h 4.8 km/h 65% 0 mm 696.00 W/m2
10:09 22.2 °C 15 °C 1019.2 hPa NE 3.2 km/h 3.2 km/h 65% 0 mm 712.00 W/m2
10:14 22.2 °C 15 °C 1019.2 hPa East 3.2 km/h 3.2 km/h 63% 0 mm 721.00 W/m2
10:19 22.8 °C 15 °C 1019.2 hPa ESE 3.2 km/h 3.2 km/h 62% 0 mm 728.00 W/m2
10:24 22.8 °C 15 °C 1019.2 hPa ESE 6.4 km/h 3.2 km/h 62% 0 mm 747.00 W/m2
10:29 23.3 °C 15 °C 1019.2 hPa SE 3.2 km/h 4.8 km/h 61% 0 mm 754.00 W/m2
10:34 23.3 °C 15 °C 1019.2 hPa East 3.2 km/h 3.2 km/h 59% 0 mm 770.00 W/m2
10:39 23.3 °C 15 °C 1019.2 hPa East 3.2 km/h 3.2 km/h 60% 0 mm 779.00 W/m2
10:44 23.9 °C 15.6 °C 1019.2 hPa East 3.2 km/h 3.2 km/h 60% 0 mm 795.00 W/m2
10:49 24.4 °C 15.6 °C 1015.8 hPa SE 6.4 km/h 3.2 km/h 59% 0 mm 802.00 W/m2
10:54 24.4 °C 15 °C 1015.8 hPa SE 6.4 km/h 4.8 km/h 57% 0 mm 810.00 W/m2
10:59 24.4 °C 15 °C 1015.8 hPa SE 6.4 km/h 3.2 km/h 56% 0 mm 819.00 W/m2
11:04 25 °C 15.6 °C 1019.2 hPa East 6.4 km/h 4.8 km/h 56% 0 mm 831.00 W/m2
11:09 25 °C 15.6 °C 1015.8 hPa ESE 3.2 km/h 4.8 km/h 55% 0 mm 838.00 W/m2
11:14 25.6 °C 15.6 °C 1015.8 hPa East 3.2 km/h 3.2 km/h 55% 0 mm 846.00 W/m2
11:19 25.6 °C 15.6 °C 1015.8 hPa ENE 9.7 km/h 4.8 km/h 55% 0 mm 856.00 W/m2
11:24 25.6 °C 15.6 °C 1015.8 hPa ESE 9.7 km/h 9.7 km/h 54% 0 mm 865.00 W/m2
11:29 26.1 °C 15.6 °C 1015.8 hPa ESE 11.3 km/h 6.4 km/h 54% 0 mm 872.00 W/m2
11:34 26.1 °C 15.6 °C 1015.8 hPa ESE 14.5 km/h 11.3 km/h 53% 0 mm 877.00 W/m2
11:39 26.7 °C 15.6 °C 1015.8 hPa ESE 17.7 km/h 14.5 km/h 52% 0 mm 886.00 W/m2
11:44 26.7 °C 15.6 °C 1015.8 hPa SE 6.4 km/h 16.1 km/h 52% 0 mm 891.00 W/m2
11:48 26.7 °C 15.6 °C 1015.8 hPa ESE 6.4 km/h 4.8 km/h 50% 0 mm 895.00 W/m2
11:54 27.2 °C 15.6 °C 1015.8 hPa ESE 11.3 km/h 9.7 km/h 51% 0 mm 902.00 W/m2
11:59 27.2 °C 15.6 °C 1015.8 hPa ESE 11.3 km/h 11.3 km/h 50% 0 mm 911.00 W/m2
12:04 27.2 °C 15.6 °C 1015.8 hPa ESE 11.3 km/h 9.7 km/h 50% 0 mm 912.00 W/m2
12:09 27.2 °C 15.6 °C 1015.8 hPa SE 17.7 km/h 16.1 km/h 48% 0 mm 914.00 W/m2
12:14 27.8 °C 15.6 °C 1015.8 hPa SSE 14.5 km/h 14.5 km/h 48% 0 mm 919.00 W/m2
12:19 27.8 °C 16.1 °C 1015.8 hPa SSE 3.2 km/h 9.7 km/h 49% 0 mm 919.00 W/m2
12:24 27.8 °C 15.6 °C 1015.8 hPa SE 6.4 km/h 3.2 km/h 48% 0 mm 925.00 W/m2
12:29 28.3 °C 15.6 °C 1015.8 hPa SSE 6.4 km/h 4.8 km/h 47% 0 mm 928.00 W/m2
12:34 28.3 °C 15.6 °C 1015.8 hPa SE 14.5 km/h 8 km/h 46% 0 mm 928.00 W/m2
12:39 28.3 °C 15.6 °C 1015.8 hPa East 11.3 km/h 14.5 km/h 46% 0 mm 928.00 W/m2
12:44 28.3 °C 15.6 °C 1015.8 hPa NE 9.7 km/h 11.3 km/h 45% 0 mm 930.00 W/m2
12:49 28.9 °C 15.6 °C 1015.8 hPa ENE 3.2 km/h 9.7 km/h 45% 0 mm 932.00 W/m2
12:54 28.9 °C 16.1 °C 1015.8 hPa NE 17.7 km/h 9.7 km/h 45% 0 mm 932.00 W/m2
12:59 29.4 °C 15.6 °C 1015.8 hPa SE 19.3 km/h 16.1 km/h 43% 0 mm 933.00 W/m2
13:04 29.4 °C 15.6 °C 1015.8 hPa SSE 20.9 km/h 20.9 km/h 44% 0 mm 932.00 W/m2
13:09 29.4 °C 15.6 °C 1015.8 hPa SE 11.3 km/h 11.3 km/h 43% 0 mm 930.00 W/m2
13:14 29.4 °C 15 °C 1015.8 hPa SE 17.7 km/h 14.5 km/h 42% 0 mm 928.00 W/m2
13:19 29.4 °C 15 °C 1015.8 hPa SSE 16.1 km/h 16.1 km/h 42% 0 mm 926.00 W/m2
13:24 29.4 °C 15 °C 1015.8 hPa SE 11.3 km/h 11.3 km/h 42% 0 mm 923.00 W/m2
13:29 29.4 °C 15 °C 1015.8 hPa SE 14.5 km/h 11.3 km/h 42% 0 mm 923.00 W/m2
13:34 29.4 °C 15.6 °C 1015.8 hPa SE 9.7 km/h 14.5 km/h 42% 0 mm 919.00 W/m2
13:39 29.4 °C 15.6 °C 1015.8 hPa ESE 6.4 km/h 9.7 km/h 42% 0 mm 916.00 W/m2
13:44 30 °C 15.6 °C 1015.8 hPa ESE 9.7 km/h 4.8 km/h 42% 0 mm 914.00 W/m2
13:49 30 °C 15.6 °C 1015.8 hPa ESE 14.5 km/h 9.7 km/h 41% 0 mm 912.00 W/m2
13:54 30 °C 15.6 °C 1015.8 hPa ESE 14.5 km/h 14.5 km/h 41% 0 mm 907.00 W/m2
13:59 30 °C 15 °C 1015.8 hPa East 22.5 km/h 17.7 km/h 40% 0 mm 904.00 W/m2
14:04 30 °C 15 °C 1015.8 hPa SE 11.3 km/h 22.5 km/h 40% 0 mm 898.00 W/m2
14:09 30.6 °C 15 °C 1015.8 hPa ESE 11.3 km/h 11.3 km/h 39% 0 mm 891.00 W/m2
14:14 30.6 °C 15 °C 1015.8 hPa NNE 9.7 km/h 11.3 km/h 40% 0 mm 882.00 W/m2
14:19 30.6 °C 15 °C 1015.8 hPa SSE 9.7 km/h 9.7 km/h 40% 0 mm 882.00 W/m2
14:24 31.1 °C 15 °C 1015.8 hPa SSW 11.3 km/h 9.7 km/h 39% 0 mm 874.00 W/m2
14:29 31.1 °C 15 °C 1015.8 hPa SSE 17.7 km/h 11.3 km/h 38% 0 mm 867.00 W/m2
14:34 31.1 °C 15 °C 1015.8 hPa ESE 14.5 km/h 16.1 km/h 38% 0 mm 860.00 W/m2
14:39 31.1 °C 15 °C 1015.8 hPa ESE 9.7 km/h 11.3 km/h 37% 0 mm 851.00 W/m2
14:44 31.1 °C 15 °C 1015.8 hPa SE 11.3 km/h 9.7 km/h 37% 0 mm 840.00 W/m2
14:49 31.1 °C 13.9 °C 1015.8 hPa SSE 17.7 km/h 16.1 km/h 35% 0 mm 838.00 W/m2
14:54 31.7 °C 13.9 °C 1015.8 hPa SE 14.5 km/h 14.5 km/h 35% 0 mm 826.00 W/m2
14:59 31.7 °C 13.9 °C 1015.8 hPa ENE 29 km/h 14.5 km/h 34% 0 mm 816.00 W/m2
15:04 31.7 °C 13.9 °C 1015.8 hPa ESE 14.5 km/h 27.4 km/h 34% 0 mm 805.00 W/m2
15:09 31.7 °C 15 °C 1015.8 hPa East 11.3 km/h 14.5 km/h 36% 0 mm 796.00 W/m2
15:14 31.7 °C 13.3 °C 1015.8 hPa SSE 19.3 km/h 12.9 km/h 33% 0 mm 788.00 W/m2
15:19 31.7 °C 13.3 °C 1015.8 hPa SSE 20.9 km/h 20.9 km/h 33% 0 mm 775.00 W/m2
15:24 31.7 °C 14.4 °C 1015.8 hPa SE 3.2 km/h 20.9 km/h 35% 0 mm 765.00 W/m2
15:29 32.2 °C 13.9 °C 1015.8 hPa SSE 17.7 km/h 8 km/h 33% 0 mm 756.00 W/m2
15:34 32.2 °C 14.4 °C 1015.8 hPa SW 20.9 km/h 16.1 km/h 34% 0 mm 749.00 W/m2
15:39 32.2 °C 13.3 °C 1015.8 hPa ESE 14.5 km/h 20.9 km/h 32% 0 mm 733.00 W/m2
15:44 32.2 °C 13.9 °C 1015.8 hPa SE 6.4 km/h 14.5 km/h 33% 0 mm 719.00 W/m2
15:49 32.2 °C 13.9 °C 1015.8 hPa ESE 6.4 km/h 4.8 km/h 33% 0 mm 705.00 W/m2
15:54 32.2 °C 13.9 °C 1015.8 hPa SE 6.4 km/h 4.8 km/h 32% 0 mm 696.00 W/m2
15:59 32.8 °C 13.9 °C 1015.8 hPa ESE 17.7 km/h 16.1 km/h 32% 0 mm 684.00 W/m2
16:04 32.8 °C 13.3 °C 1015.8 hPa SE 9.7 km/h 11.3 km/h 31% 0 mm 670.00 W/m2
16:09 32.8 °C 13.3 °C 1015.8 hPa ENE 11.3 km/h 11.3 km/h 31% 0 mm 657.00 W/m2
16:14 32.8 °C 13.3 °C 1015.8 hPa SSE 11.3 km/h 11.3 km/h 31% 0 mm 643.00 W/m2
16:19 32.8 °C 13.9 °C 1015.8 hPa SSE 22.5 km/h 16.1 km/h 32% 0 mm 629.00 W/m2
16:24 32.8 °C 13.3 °C 1015.8 hPa SE 14.5 km/h 22.5 km/h 31% 0 mm 615.00 W/m2
16:29 32.8 °C 13.3 °C 1015.8 hPa SE 6.4 km/h 14.5 km/h 31% 0 mm 599.00 W/m2
16:34 32.8 °C 13.3 °C 1015.8 hPa East 14.5 km/h 4.8 km/h 31% 0 mm 587.00 W/m2
16:39 32.8 °C 13.3 °C 1015.8 hPa ESE 14.5 km/h 14.5 km/h 31% 0 mm 575.00 W/m2
16:44 32.8 °C 13.3 °C 1015.8 hPa SSE 14.5 km/h 14.5 km/h 31% 0 mm 557.00 W/m2
16:49 32.8 °C 12.8 °C 1015.8 hPa East 20.9 km/h 20.9 km/h 30% 0 mm 541.00 W/m2
16:54 32.8 °C 13.3 °C 1015.8 hPa SE 9.7 km/h 14.5 km/h 31% 0 mm 527.00 W/m2
16:59 32.8 °C 13.3 °C 1015.8 hPa SE 14.5 km/h 9.7 km/h 31% 0 mm 508.00 W/m2
17:04 32.8 °C 13.3 °C 1015.8 hPa SE 14.5 km/h 14.5 km/h 30% 0 mm 494.00 W/m2
17:09 32.8 °C 13.9 °C 1015.8 hPa ESE 11.3 km/h 14.5 km/h 32% 0 mm 478.00 W/m2
17:14 32.8 °C 13.3 °C 1015.8 hPa NE 9.7 km/h 11.3 km/h 31% 0 mm 464.00 W/m2
17:19 32.8 °C 13.3 °C 1015.8 hPa ESE 6.4 km/h 9.7 km/h 31% 0 mm 450.00 W/m2
17:24 32.8 °C 13.3 °C 1015.8 hPa ESE 11.3 km/h 6.4 km/h 31% 0 mm 434.00 W/m2
17:29 32.8 °C 12.8 °C 1015.8 hPa ESE 14.5 km/h 14.5 km/h 30% 0 mm 420.00 W/m2
17:34 32.8 °C 13.3 °C 1015.8 hPa East 9.7 km/h 14.5 km/h 31% 0 mm 404.00 W/m2
El Dorado Weather
Compliments of Weather Underground - 2 mb